Miscellaneous Local Product
Issued by NWS Hastings, NE

Home | Current Version | Previous Version | Graphics & Text | Print | Product List | Glossary On
Versions: 1 2 3 4 5 6 7 8 9 10 11 12 13 14 15 16 17 18 19 20 21 22 23 24 25 26 27 28 29 30 31 32 33 34 35 36 37 38 39 40 41 42 43 44 45 46 47 48 49 50
478
AXUS43 KGID 222302
MISGRI

GID CWA HOURLY WEATHER ROUNDUP
NATIONAL WEATHER SERVICE HASTINGS NE
600 PM CDT FRI JUL 22 2016

NOTE: "FAIR" INDICATES FEW OR NO CLOUDS BELOW 12,000 FEET WITH NO
SIGNIFICANT WEATHER AND/OR OBSTRUCTIONS TO VISIBILITY.

...SOUTH CENTRAL NEBRASKA...

CITY           SKY/WX    TMP DP  RH WIND       PRES   REMARKS
GRAND ISLAND   MOSUNNY   93  72  50 S12       29.92F HX 101
HASTINGS       MOSUNNY   90  69  50 SW7       29.95S HX  94
KEARNEY        SUNNY     91  72  52 S12       29.96S HX  98
ORD            SUNNY     94  75  54 SE6       29.91F HX 105
YORK           CLOUDY    86  72  62 S7        29.92F HX  92
AURORA         MOSUNNY   90  73  57 S7        29.92S HX  97
LEXINGTON      SUNNY     91  72  53 SE14      29.96S HX  99
HOLDREGE       SUNNY     90  67  47 SE7       29.96F HX  92
HEBRON         PTSUNNY   86  61  42 S17G26    29.87F

...NEBRASKA PANHANDLE...

CITY           SKY/WX    TMP DP  RH WIND       PRES   REMARKS
CHADRON        CLOUDY    74  64  71 E14G21    30.07S THUNDER
ALLIANCE       TSTM      69  66  90 E17G25    30.09R
SCOTTSBLUFF    MOSUNNY   85  65  51 NE17G23   30.02R
SIDNEY         CLOUDY    97  57  26 SE20G26   30.04F HX  96

...WESTERN AND NORTH CENTRAL NEBRASKA...

CITY           SKY/WX    TMP DP  RH WIND       PRES   REMARKS
VALENTINE      CLOUDY    95  61  32 S10       29.96F HX  95
AINSWORTH      PTSUNNY   90  77  66 E6        29.97F HX 102
ONEILL         PTSUNNY   94  74  50 E10       29.95R HX 104
BROKEN BOW     SUNNY     92  77  61 E8        29.95F HX 105
IMPERIAL       CLOUDY    97  61  30 E12       29.97F HX  97
NORTH PLATTE   MOSUNNY   92  78  63 E8        29.95F HX 107
MCCOOK         CLOUDY    96  65  35 E12       29.94F HX  98

...EASTERN NEBRASKA...

CITY           SKY/WX    TMP DP  RH WIND       PRES   REMARKS
NORFOLK        MOSUNNY   92  76  59 SE8       29.91F HX 104
SO SIOUX CITY  PTSUNNY   93  77  59 SE8       29.92R HX 107
TEKAMAH        MOSUNNY   94  77  57 S9        29.90F HX 108
COLUMBUS       PTSUNNY   90  70  51 S8        29.91F HX  95
ALBION         SUNNY     91  78  66 NE7       29.92F HX 105
OMAHA EPPLEY   PTSUNNY   94  80  64 S10       29.90F HX 113
OFFUTT AFB     CLOUDY    92  81  69 S10       29.90F HX 113
MILLARD        MOSUNNY   93  82  71 SE7       29.90F HX 116
LINCOLN        CLOUDY    92  72  51 SW6       29.91F HX  99
NEBRASKA CITY  CLOUDY    91  79  68 S7        29.91F HX 107
BEATRICE       CLOUDY    90  67  46 S12       29.90F HX  92
FALLS CITY     CLOUDY    94  75  54 S8        29.90F HX 105

...NORTHERN KANSAS...

CITY           SKY/WX    TMP DP  RH WIND       PRES   REMARKS
GOODLAND       MOSUNNY  102  53  19 SE14G21   29.97F HX 100
HILL CITY      MOSUNNY  100  71  39 E9        29.91F HX 108
NORTON         CLEAR     99  57  25 E10       29.92F HX  97
SMITH CENTER   SUNNY     91  66  43 E22G29    29.91F HX  94
BELOIT         SUNNY     90  66  45 E13       29.89F HX  92
HAYS           SUNNY    102  59  24 S14       29.91F HX 102
RUSSELL        SUNNY    105  60  22 S17       29.90F HX 106
CONCORDIA      CLOUDY    79  68  69 SE8       29.93F
SALINA         MOSUNNY  104  62  25 S6        29.93S HX 106
TOPEKA         SUNNY     98  69  38 SW10      29.93S HX 104



USA.gov is the U.S. government's official web portal to all federal, state and local government web resources and services.